Location: Ferintosh
(52.7647°N, 112.9692°W)
Time: 18:16:15
(UTC+00:00)

Explorer 7 - Pass Details

Date: 29 May 2024
Orbit: 466 x 622 km, 50.3° (Epoch: 15 June)

Event Time Altitude Azimuth Distance (km) Brightness Sun altitude
Rises 07:08:38 0° 270° (W) 2,543 10.3 -15.4°
Reaches altitude 10° 07:10:47 10° 266° (W) 1,681 9.3 -15.4°
Maximum altitude 07:14:31 57° 187° (S) 599 6.6 -15.5°
Drops below altitude 10° 07:18:26 10° 109° (ESE) 1,763 9.2 -15.5°
Sets 07:20:44 0° 105° (ESE) 2,681 10.2 -15.5°
